KC3WWU Weather Reports


time (UTC)temp
F
wind
direction
speed
knots
gust
knots
rain 1hr
in
rain 24hr
in
rain mn
in
humidity
%
barometer
mb
20260504045640 35 62 0.0 0.0 0.00 0.00 0.00 92 1011.5
20260504045140 35 62 0.0 0.0 0.00 0.00 0.00 92 1011.6
20260504044638 35 63 0.0 0.0 0.00 0.00 0.00 92 1011.4
20260504044135 35 62 0.0 0.0 0.00 0.00 0.00 92 1011.2
20260504043632 35 62 0.0 0.0 0.00 0.00 0.00 91 1011.7
20260504043129 35 62 0.0 0.0 0.00 0.00 0.00 90 1011.5
20260504042626 36 62 0.0 0.0 0.00 0.00 0.00 90 1011.4
20260504042123 36 53 0.0 0.9 0.00 0.00 0.00 89 1011.3
20260504041618 36 53 0.0 0.0 0.00 0.00 0.00 87 1011.4
20260504041115 37 53 0.0 0.0 0.00 0.00 0.00 85 1011.3
20260504040612 39 64 0.0 0.0 0.00 0.00 0.00 84 1011.3
20260504040109 39 69 0.0 0.0 0.00 0.00 0.00 79 1011.4
20260504035606 40 74 0.0 0.9 0.00 0.00 0.00 77 1011.5
20260504035102 40 72 0.9 0.9 0.00 0.00 0.00 78 1011.5
20260504034600 40 66 0.0 0.0 0.00 0.00 0.00 78 1011.4
20260504034057 40 73 0.9 0.9 0.00 0.00 0.00 74 1011.3
20260504033555 41 79 0.9 0.9 0.00 0.00 0.00 76 1011.2
20260504033052 41 47 0.9 0.9 0.00 0.00 0.00 72 1011.3
20260504032549 40 77 0.9 0.9 0.00 0.00 0.00 79 1011.3
20260504032045 41 71 0.0 0.0 0.00 0.00 0.00 79 1011.6
20260504031542 41 75 0.0 0.0 0.00 0.00 0.00 74 1011.4
20260504031038 41 69 0.0 0.0 0.00 0.00 0.00 70 1011.5
20260504030536 41 68 0.0 0.0 0.00 0.00 0.00 75 1011.6
20260504030032 41 72 0.0 0.0 0.00 0.00 0.00 72 1011.7
20260504025530 42 82 0.9 0.9 0.00 0.00 0.00 74 1011.5
20260504025026 43 72 0.0 0.0 0.00 0.00 0.00 68 1011.5
20260504024523 43 62 0.0 0.0 0.00 0.00 0.00 71 1011.6
20260504024020 42 66 0.0 0.0 0.00 0.00 0.00 70 1011.7
20260504023517 42 74 0.0 0.9 0.00 0.00 0.00 72 1011.6
20260504023012 43 69 0.9 0.9 0.00 0.00 0.00 68 1011.5
20260504022508 43 68 0.9 0.9 0.00 0.00 0.00 67 1011.6
20260504022005 43 70 0.0 0.0 0.00 0.00 0.00 67 1011.8
20260504021503 43 58 0.0 0.9 0.00 0.00 0.00 67 1011.5
20260504020959 43 72 0.0 0.0 0.00 0.00 0.00 69 1011.7
20260504020456 43 71 0.0 0.0 0.00 0.00 0.00 69 1011.5
20260504015953 43 77 0.0 0.0 0.00 0.00 0.00 70 1011.7
20260504015449 42 77 0.0 0.0 0.00 0.00 0.00 70 1011.6
20260504014945 42 84 0.9 0.9 0.00 0.00 0.00 71 1011.5
20260504014441 42 69 0.0 0.0 0.00 0.00 0.00 70 1011.5
20260504013938 42 69 0.0 0.0 0.00 0.00 0.00 70 1011.4
20260504013437 42 86 0.9 0.9 0.00 0.00 0.00 70 1011.4
20260504012932 43 73 0.0 0.0 0.00 0.00 0.00 71 1011.5
20260504012431 44 178 1.7 2.6 0.00 0.00 0.00 66 1011.4
20260504011928 44 67 0.0 0.0 0.00 0.00 0.00 68 1011.2
20260504011425 44 74 0.9 0.9 0.00 0.00 0.00 68 1011.1
20260504010920 44 71 0.0 0.0 0.00 0.00 0.00 69 1011.5
20260504010416 44 61 0.0 0.0 0.00 0.00 0.00 66 1011.2
20260504005913 44 72 0.0 0.0 0.00 0.00 0.00 67 1011.2
20260504005409 44 49 0.0 0.9 0.00 0.00 0.00 67 1011.2
20260504004908 45 64 0.0 0.0 0.00 0.00 0.00 65 1011.4
20260504004405 45 61 0.0 0.0 0.00 0.00 0.00 64 1011.4
20260504003901 46 70 0.0 0.0 0.00 0.00 0.00 63 1011.2
20260504003358 47 73 0.0 0.0 0.00 0.00 0.00 62 1011.1
20260504002854 48 61 0.0 0.0 0.00 0.00 0.00 58 1011.0
20260504002351 48 42 0.9 0.9 0.00 0.00 0.00 56 1011.3
20260504001849 49 32 0.0 0.9 0.00 0.00 0.00 56 1011.2
20260504001346 49 70 0.9 0.9 0.00 0.00 0.00 55 1011.3
20260504000843 49 46 0.0 0.0 0.00 0.00 0.00 57 1011.1
20260504000340 50 5 1.7 1.7 0.00 0.00 0.00 53 1011.3
20260503235837 50 13 1.7 1.7 0.00 0.00 0.00 52 1011.1
20260503235335 50 31 0.9 0.9 0.00 0.00 0.00 52 1010.9
20260503234832 51 334 2.6 2.6 0.00 0.00 0.00 50 1011.1
20260503234330 51 27 1.7 2.6 0.00 0.00 0.00 51 1011.3
20260503233828 51 329 2.6 3.5 0.00 0.00 0.00 50 1011.0
20260503233323 52 24 2.6 2.6 0.00 0.00 0.00 49 1010.9
20260503232820 52 320 1.7 2.6 0.00 0.00 0.00 50 1011.1
20260503232318 52 338 1.7 2.6 0.00 0.00 0.00 50 1011.0
20260503231815 52 305 2.6 2.6 0.00 0.00 0.00 48 1011.1
20260503231312 53 305 1.7 2.6 0.00 0.00 0.00 48 1011.3
20260503230808 53 11 2.6 2.6 0.00 0.00 0.00 47 1011.0
20260503230305 53 310 5.2 7.0 0.00 0.00 0.00 46 1011.2
20260503225803 52 31 0.9 0.9 0.00 0.00 0.00 49 1011.3
20260503225258 52 324 2.6 2.6 0.00 0.00 0.00 48 1011.3
20260503224755 52 347 1.7 1.7 0.00 0.00 0.00 48 1011.2
20260503224252 53 280 5.2 7.0 0.00 0.00 0.00 47 1011.1
20260503223750 52 318 2.6 3.5 0.00 0.00 0.00 47 1011.0
20260503223247 52 2 1.7 2.6 0.00 0.00 0.00 50 1011.2
20260503222743 53 283 5.2 7.0 0.00 0.00 0.00 46 1011.2
20260503222241 54 301 3.5 3.5 0.00 0.00 0.00 45 1011.0
20260503221739 53 31 1.7 1.7 0.00 0.00 0.00 47 1011.4
20260503221237 53 292 2.6 3.5 0.00 0.00 0.00 46 1011.1
20260503220733 53 298 5.2 6.1 0.00 0.00 0.00 47 1011.2
20260503220230 52 318 7.8 8.7 0.00 0.00 0.00 46 1011.1
20260503215727 54 28 4.3 5.2 0.00 0.00 0.00 46 1011.1
20260503215224 55 314 5.2 6.1 0.00 0.00 0.00 44 1011.2
20260503214722 54 321 4.3 5.2 0.00 0.00 0.00 47 1011.3
20260503214219 53 30 0.9 0.9 0.00 0.00 0.00 48 1011.2
20260503213717 53 323 1.7 1.7 0.00 0.00 0.00 48 1011.2
20260503213214 53 286 3.5 3.5 0.00 0.00 0.00 46 1011.3
20260503212710 53 278 3.5 3.5 0.00 0.00 0.00 47 1011.3
20260503212208 53 305 4.3 5.2 0.00 0.00 0.00 45 1011.1
20260503211706 54 313 6.1 8.7 0.00 0.00 0.00 45 1011.3
20260503211201 54 332 1.7 2.6 0.00 0.00 0.00 45 1011.2
20260503210657 53 302 2.6 3.5 0.00 0.00 0.00 46 1011.1
20260503210155 53 282 3.5 5.2 0.00 0.00 0.00 45 1011.1
20260503205650 53 301 4.3 6.1 0.00 0.00 0.00 46 1011.3
20260503205146 54 304 3.5 3.5 0.00 0.00 0.00 44 1011.3
20260503204643 53 268 4.3 6.1 0.00 0.00 0.00 46 1011.1
20260503204141 53 56 1.7 2.6 0.00 0.00 0.00 45 1011.2
20260503203638 55 344 4.3 6.1 0.00 0.00 0.00 44 1011.2
20260503203135 53 290 1.7 2.6 0.00 0.00 0.00 47 1011.4
20260503202632 53 269 3.5 5.2 0.00 0.00 0.00 47 1011.3
20260503202131 56 349 4.3 7.0 0.00 0.00 0.00 44 1011.3
20260503201628 54 292 3.5 5.2 0.00 0.00 0.00 44 1011.4
20260503201125 52 305 3.5 5.2 0.00 0.00 0.00 48 1011.5
20260503200621 54 282 6.1 7.0 0.00 0.00 0.00 46 1011.5
20260503200118 53 254 2.6 3.5 0.00 0.00 0.00 47 1011.6
20260503195615 53 320 2.6 3.5 0.00 0.00 0.00 48 1011.6
20260503195112 53 330 4.3 6.1 0.00 0.00 0.00 46 1011.6
20260503194609 54 311 5.2 8.7 0.00 0.00 0.00 45 1012.0
20260503194104 54 237 2.6 2.6 0.00 0.00 0.00 46 1011.8
20260503193601 54 43 1.7 2.6 0.00 0.00 0.00 43 1011.7
20260503193056 55 297 3.5 5.2 0.00 0.00 0.00 46 1012.0
20260503192552 54 299 4.3 7.0 0.00 0.00 0.00 46 1012.0
20260503192048 53 298 4.3 5.2 0.00 0.00 0.00 49 1012.1
20260503191545 53 11 6.1 7.8 0.00 0.00 0.00 49 1012.4
20260503191042 55 10 6.1 7.0 0.00 0.00 0.00 44 1012.2
20260503190539 55 291 4.3 5.2 0.00 0.00 0.00 48 1012.3
20260503190037 54 266 5.2 6.1 0.00 0.00 0.00 46 1012.2
20260503185533 52 298 3.5 3.5 0.00 0.00 0.00 48 1012.3
20260503185032 54 307 5.2 7.8 0.00 0.00 0.00 49 1012.3
20260503184529 52 283 4.3 6.1 0.00 0.00 0.00 46 1012.4
20260503184025 51 292 2.6 3.5 0.00 0.00 0.00 50 1012.6
20260503183522 51 317 4.3 6.1 0.00 0.00 0.00 49 1012.7
20260503183019 52 296 5.2 7.0 0.00 0.00 0.00 46 1012.4
20260503182518 52 25 2.6 3.5 0.00 0.00 0.00 54 1012.8
20260503182015 54 29 3.5 5.2 0.00 0.00 0.00 45 1012.6
20260503181512 52 324 3.5 6.1 0.00 0.00 0.00 49 1012.6
20260503181008 52 301 3.5 3.5 0.00 0.00 0.00 49 1012.5
20260503180506 52 274 5.2 6.1 0.00 0.00 0.00 49 1012.5
20260503180002 51 2 1.7 1.7 0.00 0.00 0.00 50 1012.7
20260503175500 51 9 0.9 1.7 0.00 0.00 0.00 55 1012.8
20260503174956 51 328 7.0 7.8 0.00 0.00 0.00 48 1013.0
20260503174454 52 336 3.5 3.5 0.00 0.00 0.00 52 1012.9
20260503173949 52 242 5.2 6.1 0.00 0.00 0.00 49 1012.7
20260503173445 51 351 4.3 7.0 0.00 0.00 0.00 51 1012.7
20260503172942 50 289 5.2 7.0 0.00 0.00 0.00 50 1012.9
20260503172440 51 319 2.6 3.5 0.00 0.00 0.00 47 1012.8
20260503171936 50 299 4.3 6.1 0.00 0.00 0.00 47 1012.9
20260503171433 50 300 3.5 5.2 0.00 0.00 0.00 50 1013.0
20260503170931 52 257 6.1 7.0 0.00 0.00 0.00 48 1013.1
20260503170426 51 313 4.3 5.2 0.00 0.00 0.00 51 1013.0
20260503150819 45 243 3.5 3.5 0.00 0.00 0.00 65 1013.9
20260503150315 45 298 3.5 3.5 0.00 0.00 0.00 64 1013.8
20260503140239 43 305 3.5 5.2 0.00 0.00 0.00 70 1014.1
20260503131209 40 249 3.5 5.2 0.00 0.00 0.00 73 1013.8
20260503130707 40 319 2.6 2.6 0.00 0.00 0.00 75 1013.8
20260503130204 39 257 3.5 5.2 0.00 0.00 0.00 77 1013.9
20260503120129 34 321 3.5 3.5 0.00 0.00 0.00 86 1013.5
20260503110556 30 17 0.9 1.7 0.00 0.00 0.00 93 1013.1
20260503090444 30 24 0.9 0.9 0.00 0.00 0.00 91 1012.3
20260503081410 30 30 0.9 0.9 0.00 0.00 0.00 92 1012.2
20260503080907 30 26 0.9 0.9 0.00 0.00 0.00 92 1012.0
20260503080404 30 29 0.9 0.9 0.00 0.00 0.00 92 1012.2
20260503072840 30 69 0.0 0.0 0.00 0.00 0.00 92 1012.0
20260503072337 31 69 0.0 0.0 0.00 0.00 0.00 91 1011.8
20260503071833 31 47 0.0 0.0 0.00 0.00 0.00 90 1011.8
20260503071331 31 50 0.0 0.0 0.00 0.00 0.00 91 1011.7
20260503070827 31 66 0.0 0.0 0.00 0.00 0.00 91 1011.8
20260503070325 31 49 0.0 0.0 0.00 0.00 0.00 90 1011.8
20260503060256 34 3 0.9 1.7 0.00 0.00 0.00 85 1011.8
20260503054743 33 57 0.0 0.9 0.00 0.00 0.00 86 1011.8
20260503054240 33 16 0.9 0.9 0.00 0.00 0.00 85 1012.2
20260503053738 33 44 0.0 0.9 0.00 0.00 0.00 86 1012.1
20260503053237 33 350 0.9 1.7 0.00 0.00 0.00 87 1011.8
20260503052732 33 49 0.9 0.9 0.00 0.00 0.00 87 1012.1
20260503052229 33 40 0.9 0.9 0.00 0.00 0.00 87 1012.0
20260503051724 33 35 0.9 0.9 0.00 0.00 0.00 86 1012.0
20260503051222 33 34 0.9 0.9 0.00 0.00 0.00 86 1012.0
20260503050718 33 40 0.0 0.9 0.00 0.00 0.00 86 1012.1
20260503050215 33 44 0.0 0.0 0.00 0.00 0.00 86 1012.0